Regional Weather Roundup
Issued by NWS

Home | Current Version | Previous Version | Text Only | Print | Product List | Glossary On
Versions: 1 2 3 4 5 6 7 8 9 10 11 12 13 14 15 16 17 18 19 20 21 22 23 24 25 26 27 28 29 30 31 32 33 34 35 36 37 38 39 40 41 42 43 44 45 46 47 48 49 50
000
ASUS44 KBMX 020710
RWRAL

ALABAMA REGIONAL WEATHER ROUNDUP
NATIONAL WEATHER SERVICE BIRMINGHAM AL
200 AM CDT TUE JUN 02 2015

NOTE: "FAIR" INDICATES FEW OR NO CLOUDS BELOW 12,000 FEET
WITH NO SIGNIFICANT WEATHER AND/OR OBSTRUCTIONS TO VISIBILITY.

THE REMARK "TC" DENOTES TEMPERATURE IN DEGREES CELSIUS.

ALZ001>011-014-016>018-020-020800-
NORTH ALABAMA

CITY           SKY/WX    TMP DP  RH WIND       PRES   REMARKS
MUSCLE SHOALS  CLEAR     65  61  87 CALM      30.05F
HUNTSVILLE     MOCLDY    66  63  90 N3        30.04F FOG
DECATUR        CLOUDY    66  64  93 N3        30.04F
HALEYVILLE     FAIR      60  60 100 CALM      30.07F
GADSDEN        PTCLDY   N/A N/A N/A CALM      30.02F
$$

ALZ012-013-022-023-030>036-040>044-020800-
WEST CENTRAL ALABAMA

CITY           SKY/WX    TMP DP  RH WIND       PRES   REMARKS
TUSCALOOSA     PTCLDY    67  64  90 N6        30.03F
$$

ALZ015-024>027-033>036-040>044-020800-
CENTRAL ALABAMA

CITY           SKY/WX    TMP DP  RH WIND       PRES   REMARKS
BIRMINGHAM     CLEAR     66  65  96 CALM      30.05F
MONTGOMERY     MOCLDY    71  67  87 CALM      30.02F
SHELBY CO ARPT FOG       67  66  97 CALM      30.03F VSB 1/4
MAXWELL AFB    CLOUDY    71  70  97 CALM      30.01F
GREENVILLE     CLOUDY    66  63  90 CALM      30.01F
$$

ALZ019-021-028-029-037-038-045>048-020800-
EAST CENTRAL ALABAMA

CITY           SKY/WX    TMP DP  RH WIND       PRES   REMARKS
ANNISTON       CLOUDY    65  63  93 E3        30.04S
ALEXANDER CITY MOCLDY    67  63  86 CALM      30.03F
AUBURN         CLOUDY    66  63  88 CALM      30.05F
$$

ALZ051>064-020800-
SOUTHWEST ALABAMA

CITY           SKY/WX    TMP DP  RH WIND       PRES   REMARKS
MOBILE         FOG       70  70 100 N6        30.00F VSB 3/4
BROOKLEY FIELD MOCLDY    72  70  93 NW5       30.01S
EVERGREEN      CLOUDY    67  66  97 CALM      30.02F
$$

ALZ049-050-065>069-020800-
SOUTHEAST ALABAMA

CITY           SKY/WX    TMP DP  RH WIND       PRES   REMARKS
DOTHAN         CLEAR     69  68  96 N3        30.04F
OZARK          PTCLDY    68  67  98 CALM      30.01F
TROY           FOG       69  68  96 CALM      30.01F VSB 3/4
EUFAULA        CLOUDY    71  69  93 CALM      30.01F
$$



USA.gov is the U.S. government's official web portal to all federal, state and local government web resources and services.